Wind_Speed
62 64 65 67 69 72 74 77 79 79 77 77 80 82 85 87 88 89 90 90 90 90 90 89 89 88 88 87 87 87 87 87 87 87 88 88 89 89
64 65 67 69 72 73 76 78 80 83 83 81 84 86 89 90 90 90 89 88 86 85 84 83 81 80 79 78 77 77 77 78 78 79 79 80 82 84
66 68 70 72 73 75 78 80 82 85 87 85 86 88 89 89 88 87 84 82 79 76 74 72 69 67 66 65 65 64 65 66 67 68 69 70 72 75
68 70 72 74 75 78 80 82 84 86 89 88 86 86 85 84 82 80 76 73 69 66 63 60 58 56 55 55 54 55 55 56 57 59 60 62 64 66
71 72 74 76 78 80 82 84 85 87 88 88 85 82 79 76 73 70 67 64 60 57 54 52 51 50 50 50 50 50 50 51 52 53 54 55 56 58
73 74 76 79 80 82 83 85 86 86 85 83 80 75 70 67 64 61 58 56 53 51 49 48 48 47 46 46 46 46 47 47 47 48 49 50 51 52
75 77 79 80 82 84 85 85 84 83 80 77 72 66 61 58 56 54 51 49 47 46 46 45 45 44 43 43 43 43 43 43 43 44 45 46 47 48
78 79 81 82 83 84 84 83 81 78 74 69 64 59 55 52 50 48 46 44 42 42 42 41 41 41 41 41 41 40 40 40 41 41 42 43 44 45
80 82 83 83 83 82 81 79 75 71 67 62 57 53 50 47 45 43 42 41 39 38 38 37 38 39 40 40 40 39 38 38 39 39 39 40 41 42
82 83 83 82 82 80 77 73 68 63 59 56 52 48 46 43 42 41 39 38 35 35 35 34 35 36 38 39 39 38 37 37 37 36 37 37 37 38
83 83 82 81 78 76 72 66 60 55 52 49 47 44 42 41 40 38 37 35 33 32 33 34 33 34 35 36 37 36 35 35 34 34 34 35 35 35
82 80 79 77 73 68 63 58 52 48 45 43 41 40 39 38 37 36 35 34 33 31 31 32 32 32 31 33 34 33 33 32 32 32 32 32 32 32
80 77 73 69 64 59 55 50 46 43 41 39 38 36 36 35 35 34 34 34 33 31 31 31 30 30 30 29 30 30 30 29 29 29 29 30 30 30
76 71 66 60 56 51 47 44 42 40 39 37 35 34 33 32 32 32 32 32 32 31 30 29 28 28 27 27 27 28 28 28 27 27 28 28 29 29
69 64 58 52 48 44 42 41 39 38 37 36 34 32 32 31 31 30 30 30 30 29 28 28 27 26 25 25 25 26 26 26 27 27 27 27 28 29
61 55 50 45 42 40 39 38 38 37 36 34 32 31 30 30 29 29 28 28 27 27 27 27 26 25 24 24 24 24 25 26 26 26 26 27 27 28
53 47 42 39 37 37 37 36 36 35 33 32 31 30 29 28 28 27 27 26 26 26 26 25 25 25 24 24 23 24 24 25 25 26 26 26 27 28
46 41 38 36 35 34 34 34 34 32 31 30 29 28 27 27 27 26 26 25 25 25 25 24 24 24 23 23 24 23 23 24 24 25 26 26 28 28
40 37 36 35 34 33 33 32 31 30 29 28 27 27 27 26 26 25 25 25 24 24 24 23 23 23 23 23 23 23 23 24 24 24 25 26 28 29
37 35 34 34 33 32 31 30 28 27 27 27 26 26 26 25 25 25 25 25 24 24 23 23 23 22 22 23 23 23 24 24 24 24 25 26 27 28
34 34 33 33 32 30 29 27 26 25 25 25 25 25 25 24 24 24 24 24 24 23 23 24 23 23 22 22 23 24 24 24 24 24 25 25 26 28
33 32 32 31 30 28 27 26 25 24 24 24 24 24 24 24 23 23 23 23 24 23 23 24 24 24 24 24 24 25 25 25 25 24 25 26 27 27
31 30 29 28 27 26 25 24 24 23 24 24 24 24 24 24 23 23 23 23 23 23 24 24 24 25 24 24 25 25 26 26 26 26 26 27 28 28
Wind_Direction
293 293 293 293 294 294 294 294 293 292 290 291 291 291 291 290 289 288 287 286 284 283 281 280 278 276 274 272 270 268 266 265 263 261 260 258 256 254
294 294 294 295 295 295 295 295 295 294 293 293 293 293 292 292 291 289 288 287 285 284 282 280 278 276 274 272 270 268 266 264 262 260 259 257 255 254
295 296 296 296 296 297 297 297 297 297 296 296 295 295 294 292 291 290 289 287 285 283 281 280 278 275 273 271 269 267 265 263 261 260 258 256 255 253
297 298 298 298 299 299 299 299 299 298 298 298 297 296 294 293 291 290 288 287 285 283 281 279 276 274 272 270 269 267 265 263 261 260 258 256 254 252
300 300 300 300 300 300 300 300 300 299 299 298 298 296 294 293 291 289 288 286 285 283 280 278 276 273 272 270 268 266 265 263 261 260 258 256 254 252
302 302 302 301 301 301 301 301 300 300 299 299 298 296 294 292 290 288 286 285 284 282 280 277 275 273 272 270 268 266 265 263 261 260 258 256 254 252
302 303 303 303 303 303 302 302 301 300 299 298 297 296 294 291 289 287 285 283 282 280 279 278 276 274 272 270 269 267 265 263 261 260 258 256 254 252
304 304 304 304 304 303 303 302 301 300 299 298 296 295 293 291 288 286 284 282 280 278 277 276 275 273 272 271 270 268 267 264 262 260 257 255 253 252
305 305 305 304 304 303 302 302 301 299 298 296 295 294 292 290 288 286 284 283 281 278 276 275 273 273 272 272 271 269 268 265 262 259 257 255 253 251
306 306 305 305 304 303 302 301 299 297 295 295 294 294 292 290 288 286 285 283 281 279 278 276 273 272 271 271 270 269 267 264 261 259 257 255 252 249
307 306 305 304 303 302 301 299 297 295 293 293 293 292 290 289 288 286 285 283 281 280 279 278 275 272 271 270 269 268 267 264 261 258 256 253 251 248
307 306 305 304 303 301 300 298 296 294 292 292 291 291 290 288 287 286 285 284 283 281 280 279 277 274 271 269 269 267 265 262 259 257 254 251 248 245
307 305 304 303 301 300 298 297 295 294 293 292 290 289 288 286 285 285 286 286 285 283 281 280 278 276 272 268 268 266 263 260 257 255 252 248 245 243
307 305 304 302 300 298 297 296 295 294 294 293 292 290 287 286 285 285 286 286 286 284 283 281 278 276 274 270 266 265 262 259 256 254 251 248 244 241
306 305 303 301 299 297 296 295 295 295 294 293 292 290 288 287 286 286 285 286 285 283 282 281 279 278 275 272 267 263 260 258 255 252 250 247 244 240
305 303 301 299 297 295 295 294 294 294 294 292 291 290 288 288 287 287 286 285 285 283 282 281 279 277 274 271 268 263 260 257 255 252 249 246 243 239
303 301 299 297 295 294 294 294 294 293 293 293 292 291 289 288 288 287 286 286 285 284 283 281 277 275 272 269 266 264 261 258 255 251 248 245 242 239
303 301 300 298 297 295 295 295 294 293 293 293 292 291 290 289 288 287 286 286 286 285 283 280 277 274 270 268 265 264 262 259 255 252 248 245 241 238
302 301 300 299 298 297 296 295 294 292 293 293 293 292 290 290 289 287 287 286 286 285 283 281 278 274 270 267 266 264 262 259 257 253 249 245 242 239
301 301 300 300 299 298 297 296 294 293 293 293 293 292 291 290 289 288 287 286 285 284 282 281 278 274 271 269 268 265 262 260 257 254 251 247 244 241
300 300 300 300 299 298 297 296 295 293 293 293 294 294 293 292 291 290 288 285 284 283 281 280 278 275 273 270 267 265 264 261 258 255 252 248 246 243
300 300 300 300 299 298 297 296 294 293 293 294 294 295 294 293 292 291 289 287 284 283 282 280 279 277 273 269 267 265 264 262 260 256 253 249 246 244
300 300 300 300 299 298 298 296 295 295 295 295 295 295 295 294 293 292 291 289 287 284 282 281 280 278 274 270 267 265 264 263 261 258 255 251 247 245
Height
5660 5654 5648 5641 5634 5627 5619 5612 5605 5602 5603 5598 5588 5578 5568 5560 5552 5545 5539 5532 5526 5521 5517 5514 5511 5509 5507 5506 5506 5506 5507 5509 5511 5514 5517 5521 5526 5532
5644 5638 5631 5624 5617 5609 5601 5593 5584 5576 5575 5576 5564 5553 5542 5533 5524 5516 5510 5503 5498 5492 5488 5484 5482 5480 5478 5478 5478 5478 5479 5481 5483 5486 5489 5493 5498 5503
5628 5621 5614 5606 5598 5590 5581 5573 5563 5553 5547 5549 5540 5528 5516 5506 5497 5489 5482 5476 5471 5466 5462 5459 5457 5455 5454 5454 5454 5454 5455 5457 5459 5462 5465 5469 5473 5479
5611 5603 5595 5587 5579 5570 5560 5551 5541 5530 5521 5518 5515 5503 5492 5480 5472 5464 5457 5452 5448 5444 5441 5438 5436 5435 5435 5434 5435 5435 5436 5437 5439 5441 5445 5449 5452 5455
5592 5584 5576 5567 5558 5549 5539 5529 5518 5508 5497 5489 5486 5477 5468 5457 5449 5442 5436 5432 5428 5425 5422 5421 5419 5418 5418 5418 5418 5418 5419 5421 5422 5424 5426 5429 5433 5436
5573 5564 5555 5545 5536 5527 5517 5506 5495 5485 5475 5465 5459 5453 5445 5437 5428 5423 5420 5415 5412 5409 5406 5404 5403 5403 5402 5402 5403 5403 5404 5405 5406 5408 5410 5413 5416 5420
5554 5544 5534 5524 5513 5503 5493 5483 5472 5462 5452 5443 5437 5431 5425 5418 5411 5406 5403 5401 5398 5394 5392 5390 5389 5389 5388 5388 5388 5389 5389 5391 5392 5394 5396 5398 5401 5404
5534 5524 5513 5502 5491 5480 5469 5458 5448 5438 5430 5422 5417 5412 5407 5401 5395 5391 5388 5386 5385 5382 5379 5378 5376 5376 5375 5374 5375 5375 5376 5377 5378 5380 5382 5384 5386 5390
5512 5502 5491 5480 5467 5457 5448 5438 5428 5417 5409 5403 5399 5395 5390 5386 5381 5378 5375 5372 5371 5370 5367 5367 5365 5364 5362 5362 5362 5362 5363 5364 5365 5367 5368 5371 5373 5376
5490 5479 5468 5457 5445 5434 5426 5418 5410 5401 5393 5386 5382 5379 5375 5372 5368 5365 5362 5361 5360 5358 5355 5355 5354 5352 5351 5350 5349 5349 5350 5351 5352 5354 5356 5358 5361 5364
5469 5457 5444 5434 5424 5413 5404 5398 5392 5386 5379 5373 5369 5366 5362 5359 5355 5353 5351 5349 5348 5347 5344 5343 5343 5341 5340 5338 5337 5338 5338 5339 5341 5342 5344 5347 5349 5353
5449 5437 5423 5412 5403 5394 5385 5380 5375 5371 5366 5362 5358 5354 5350 5347 5344 5341 5339 5337 5337 5336 5334 5332 5331 5330 5330 5328 5327 5327 5327 5328 5330 5332 5334 5336 5339 5342
5427 5416 5405 5394 5385 5377 5369 5364 5360 5356 5353 5350 5347 5343 5340 5337 5334 5331 5329 5327 5326 5325 5324 5322 5321 5319 5319 5319 5317 5317 5317 5319 5320 5322 5324 5327 5330 5333
5403 5395 5385 5376 5368 5362 5356 5352 5348 5344 5341 5338 5335 5332 5330 5327 5324 5321 5319 5317 5315 5314 5313 5311 5310 5309 5309 5309 5308 5308 5308 5310 5311 5313 5315 5318 5321 5324
5382 5374 5367 5360 5354 5349 5345 5340 5336 5333 5330 5327 5324 5322 5319 5316 5314 5312 5309 5307 5305 5304 5302 5301 5300 5300 5300 5299 5299 5299 5300 5301 5303 5305 5307 5309 5312 5316
5364 5358 5352 5346 5341 5337 5334 5330 5326 5322 5319 5316 5314 5311 5309 5306 5304 5302 5300 5298 5296 5295 5293 5292 5291 5291 5291 5290 5290 5291 5291 5292 5294 5296 5299 5301 5304 5307
5349 5344 5340 5335 5331 5327 5323 5319 5316 5312 5309 5306 5303 5301 5299 5296 5294 5292 5290 5289 5287 5286 5284 5283 5282 5282 5282 5282 5282 5282 5283 5284 5286 5288 5290 5293 5296 5299
5335 5331 5327 5324 5320 5317 5313 5309 5306 5302 5299 5296 5294 5292 5289 5287 5285 5283 5281 5280 5278 5277 5275 5274 5273 5273 5273 5273 5274 5274 5275 5276 5277 5279 5282 5284 5287 5291
5323 5320 5316 5313 5309 5306 5303 5299 5296 5293 5290 5287 5285 5283 5281 5278 5276 5274 5273 5271 5269 5268 5267 5266 5265 5265 5265 5265 5265 5266 5267 5268 5269 5271 5273 5275 5278 5282
5313 5309 5306 5303 5299 5296 5293 5290 5287 5284 5281 5279 5277 5274 5272 5270 5268 5266 5264 5263 5261 5260 5258 5258 5257 5257 5257 5258 5258 5258 5258 5259 5261 5262 5264 5267 5269 5273
5304 5300 5296 5293 5289 5286 5283 5281 5278 5276 5273 5271 5268 5266 5264 5262 5260 5258 5256 5254 5253 5252 5251 5250 5249 5249 5249 5249 5250 5249 5250 5251 5252 5254 5255 5258 5261 5264
5295 5291 5288 5284 5280 5277 5275 5272 5270 5268 5265 5263 5261 5258 5256 5253 5251 5249 5248 5246 5245 5244 5243 5241 5240 5240 5240 5241 5241 5241 5241 5242 5243 5245 5247 5249 5251 5254
5286 5282 5279 5276 5272 5269 5267 5264 5262 5260 5257 5255 5253 5250 5248 5245 5243 5241 5240 5238 5237 5235 5234 5233 5232 5231 5231 5231 5232 5232 5232 5233 5234 5235 5237 5239 5241 5244